Hourly Weather Dabrowa

Today, 17 April, Saturday

Time Temperature Precipitation Wind Pressure Humidity
00:00 +3°C° 0 mm 3 mps 754 mmHg 94%
01:00 +4°C° 0 mm 2 mps 754 mmHg 95%
02:00 +4°C° 0 mm 2 mps 754 mmHg 95%
03:00 +4°C° 0 mm 2 mps 754 mmHg 96%
04:00 +4°C° 0 mm 2 mps 754 mmHg 96%
05:00 +4°C° 0.1 mm 3 mps 754 mmHg 96%
06:00 +5°C° 0.1 mm 3 mps 754 mmHg 96%
07:00 +5°C° 0.1 mm 3 mps 754 mmHg 95%
08:00 +7°C° 0 mm 3 mps 754 mmHg 92%
09:00 +9°C° 0 mm 3 mps 754 mmHg 88%
10:00 +10°C° 0 mm 4 mps 754 mmHg 84%
11:00 +10°C° 0.1 mm 3 mps 754 mmHg 82%
12:00 +11°C° 0.1 mm 3 mps 754 mmHg 80%
13:00 +11°C° 0.1 mm 3 mps 754 mmHg 77%
14:00 +11°C° 0.3 mm 3 mps 754 mmHg 77%
15:00 +11°C° 0.3 mm 3 mps 754 mmHg 77%
16:00 +11°C° 0.3 mm 3 mps 754 mmHg 76%
17:00 +10°C° 0.4 mm 3 mps 754 mmHg 81%
18:00 +9°C° 0.4 mm 3 mps 754 mmHg 85%
19:00 +8°C° 0.4 mm 3 mps 754 mmHg 90%
20:00 +8°C° 0 mm 3 mps 754 mmHg 90%
21:00 +7°C° 0 mm 3 mps 755 mmHg 91%
22:00 +5°C° 0 mm 3 mps 755 mmHg 92%
23:00 +5°C° 0 mm 3 mps 755 mmHg 93%

Tomorrow, 18 April, Sunday

Time Temperature Precipitation Wind Pressure Humidity
00:00 +6°C° 0 mm 2 mps 755 mmHg 94%
01:00 +6°C° 0 mm 2 mps 755 mmHg 94%
02:00 +5°C° 0 mm 2 mps 755 mmHg 94%
03:00 +5°C° 0 mm 2 mps 755 mmHg 95%
04:00 +5°C° 0 mm 2 mps 755 mmHg 95%
05:00 +5°C° 0.1 mm 3 mps 755 mmHg 93%
06:00 +7°C° 0.1 mm 3 mps 755 mmHg 92%
07:00 +8°C° 0.1 mm 3 mps 755 mmHg 90%
08:00 +8°C° 0 mm 4 mps 755 mmHg 84%
09:00 +11°C° 0 mm 4 mps 755 mmHg 77%
10:00 +12°C° 0 mm 5 mps 755 mmHg 71%
11:00 +13°C° 0.1 mm 5 mps 755 mmHg 67%
12:00 +14°C° 0.1 mm 5 mps 755 mmHg 64%
13:00 +14°C° 0.1 mm 5 mps 754 mmHg 61%
14:00 +14°C° 0 mm 5 mps 754 mmHg 64%
15:00 +13°C° 0 mm 4 mps 754 mmHg 67%
16:00 +13°C° 0 mm 4 mps 754 mmHg 71%
17:00 +12°C° 0.2 mm 3 mps 754 mmHg 76%
18:00 +11°C° 0.2 mm 3 mps 754 mmHg 82%
19:00 +10°C° 0.2 mm 2 mps 754 mmHg 87%
20:00 +10°C° 0.3 mm 2 mps 754 mmHg 90%
21:00 +9°C° 0.3 mm 2 mps 754 mmHg 92%
22:00 +9°C° 0.3 mm 2 mps 754 mmHg 94%
23:00 +9°C° 0.2 mm 2 mps 754 mmHg 94%

Day after tomorrow, 19 April, Monday

Time Temperature Precipitation Wind Pressure Humidity
00:00 +9°C° 0.2 mm 3 mps 754 mmHg 94%
01:00 +9°C° 0.2 mm 3 mps 754 mmHg 94%
02:00 +9°C° 0.1 mm 3 mps 754 mmHg 93%
03:00 +8°C° 0.1 mm 3 mps 754 mmHg 93%
04:00 +8°C° 0.1 mm 3 mps 754 mmHg 92%
05:00 +8°C° 0 mm 3 mps 754 mmHg 90%
06:00 +8°C° 0 mm 4 mps 754 mmHg 88%
07:00 +8°C° 0 mm 4 mps 754 mmHg 86%
08:00 +10°C° 0 mm 4 mps 754 mmHg 80%
09:00 +10°C° 0 mm 5 mps 754 mmHg 73%
10:00 +12°C° 0 mm 5 mps 754 mmHg 66%
11:00 +11°C° 0 mm 6 mps 754 mmHg 63%
12:00 +13°C° 0 mm 6 mps 754 mmHg 61%
13:00 +13°C° 0 mm 6 mps 753 mmHg 58%
14:00 +13°C° 0 mm 5 mps 753 mmHg 60%
15:00 +13°C° 0 mm 5 mps 753 mmHg 63%
16:00 +12°C° 0 mm 4 mps 753 mmHg 65%
17:00 +11°C° 0 mm 4 mps 753 mmHg 69%
18:00 +10°C° 0 mm 4 mps 753 mmHg 72%
19:00 +8°C° 0 mm 4 mps 753 mmHg 75%
20:00 +8°C° 0 mm 3 mps 753 mmHg 79%
21:00 +7°C° 0 mm 3 mps 753 mmHg 84%
22:00 +7°C° 0 mm 3 mps 753 mmHg 88%
23:00 +7°C° 0 mm 3 mps 753 mmHg 87%

20 April, Tuesday

Time Temperature Precipitation Wind Pressure Humidity
00:00 +7°C° 0 mm 3 mps 752 mmHg 87%
01:00 +7°C° 0 mm 3 mps 752 mmHg 86%
02:00 +7°C° 0 mm 3 mps 752 mmHg 86%
03:00 +6°C° 0 mm 2 mps 752 mmHg 87%
04:00 +6°C° 0 mm 2 mps 752 mmHg 87%
05:00 +7°C° 0 mm 2 mps 751 mmHg 85%
06:00 +7°C° 0 mm 2 mps 751 mmHg 84%
07:00 +7°C° 0 mm 2 mps 751 mmHg 82%
08:00 +8°C° 0 mm 2 mps 751 mmHg 78%
09:00 +8°C° 0 mm 3 mps 751 mmHg 74%
10:00 +9°C° 0 mm 3 mps 751 mmHg 69%
11:00 +10°C° 0 mm 2 mps 751 mmHg 65%
12:00 +12°C° 0 mm 2 mps 750 mmHg 60%
13:00 +12°C° 0 mm 2 mps 750 mmHg 55%
14:00 +11°C° 0.1 mm 3 mps 750 mmHg 57%
15:00 +12°C° 0.1 mm 3 mps 749 mmHg 58%
16:00 +12°C° 0.1 mm 3 mps 749 mmHg 60%
17:00 +10°C° 0.1 mm 3 mps 749 mmHg 67%
18:00 +9°C° 0.1 mm 3 mps 749 mmHg 74%
19:00 +8°C° 0.1 mm 2 mps 749 mmHg 81%
20:00 +7°C° 0 mm 2 mps 748 mmHg 83%
21:00 +6°C° 0 mm 2 mps 748 mmHg 86%
22:00 +5°C° 0 mm 2 mps 748 mmHg 88%
23:00 +5°C° 0 mm 2 mps 748 mmHg 87%

21 April, Wednesday

Time Temperature Precipitation Wind Pressure Humidity
00:00 +5°C° 0 mm 2 mps 748 mmHg 86%
01:00 +4°C° 0 mm 2 mps 748 mmHg 85%
02:00 +4°C° 0 mm 2 mps 747 mmHg 85%
03:00 +4°C° 0 mm 2 mps 747 mmHg 85%
04:00 +4°C° 0 mm 2 mps 747 mmHg 84%
05:00 +5°C° 0 mm 2 mps 747 mmHg 81%
06:00 +6°C° 0 mm 2 mps 747 mmHg 78%
07:00 +7°C° 0 mm 3 mps 747 mmHg 75%
08:00 +8°C° 0 mm 3 mps 747 mmHg 68%
09:00 +10°C° 0 mm 3 mps 747 mmHg 61%
10:00 +11°C° 0 mm 3 mps 747 mmHg 54%
11:00 +12°C° 0 mm 3 mps 747 mmHg 51%
12:00 +12°C° 0 mm 3 mps 747 mmHg 48%
13:00 +13°C° 0 mm 3 mps 747 mmHg 45%
14:00 +13°C° 0 mm 3 mps 747 mmHg 47%
15:00 +14°C° 0 mm 2 mps 746 mmHg 48%
16:00 +14°C° 0 mm 2 mps 746 mmHg 49%
17:00 +12°C° 0 mm 2 mps 747 mmHg 54%
18:00 +11°C° 0 mm 1 mps 747 mmHg 58%
19:00 +10°C° 0 mm 1 mps 747 mmHg 62%
20:00 +9°C° 0 mm 2 mps 747 mmHg 65%
21:00 +8°C° 0 mm 2 mps 747 mmHg 67%
22:00 +7°C° 0 mm 2 mps 747 mmHg 69%
23:00 +7°C° 0 mm 2 mps 747 mmHg 71%

22 April, Thursday

Time Temperature Precipitation Wind Pressure Humidity
00:00 +6°C° 0 mm 2 mps 747 mmHg 73%
01:00 +6°C° 0 mm 2 mps 747 mmHg 74%
02:00 +6°C° 0 mm 2 mps 747 mmHg 77%
03:00 +5°C° 0 mm 3 mps 747 mmHg 80%
04:00 +4°C° 0 mm 3 mps 747 mmHg 84%
05:00 +7°C° 0 mm 3 mps 747 mmHg 80%
06:00 +8°C° 0 mm 3 mps 748 mmHg 76%
07:00 +8°C° 0 mm 4 mps 748 mmHg 73%
08:00 +11°C° 0 mm 4 mps 748 mmHg 67%
09:00 +13°C° 0 mm 4 mps 748 mmHg 62%
10:00 +15°C° 0 mm 5 mps 748 mmHg 56%
11:00 +16°C° 0.1 mm 5 mps 748 mmHg 55%
12:00 +16°C° 0.1 mm 5 mps 748 mmHg 53%
13:00 +17°C° 0.1 mm 5 mps 748 mmHg 52%
14:00 +16°C° 0.2 mm 5 mps 748 mmHg 57%
15:00 +15°C° 0.2 mm 4 mps 748 mmHg 62%
16:00 +15°C° 0.2 mm 4 mps 748 mmHg 68%
17:00 +12°C° 0.5 mm 4 mps 749 mmHg 75%
18:00 +9°C° 0.5 mm 5 mps 749 mmHg 83%
19:00 +6°C° 0.5 mm 5 mps 750 mmHg 91%
20:00 +6°C° 0.2 mm 5 mps 750 mmHg 91%
21:00 +5°C° 0.2 mm 5 mps 750 mmHg 92%
22:00 +4°C° 0.2 mm 4 mps 750 mmHg 92%
23:00 +2°C° 2.5 mm 5 mps 751 mmHg 93%
Show more